{"data":{"norad_id":61962,"intl_designator":"2024-210D","name":"STARLINK-32458","alt_names":[],"object_type":"PAYLOAD","status":"ACTIVE","operator":null,"country":"US","launch_date":"2024-11-14","launch_site_code":"AFETR","launch_vehicle":null,"mission":null,"orbit_class":"UNKNOWN","rcs_meters":null,"size_class":null,"mass_kg":null,"dimensions":null,"purposes":["comms"],"wikipedia_slug":null,"has_3d_model":false,"image_url":null,"decayed_at":null,"tle_current":{"epoch":"2026-05-24T23:34:21.019008Z","epoch_age_seconds":73431,"freshness":"FRESH","line1":"1 61962U 24210D   26144.98218772  .00015118  00000+0  55747-3 0  9990","line2":"2 61962  43.0005  94.6226 0001124 249.7315 110.3416 15.27596846 86740","mean_motion":15.27596846,"eccentricity":0.0001124,"inclination_deg":43.0005,"raan_deg":94.6226,"arg_perigee_deg":249.7315,"mean_anomaly_deg":110.3416,"bstar":0.00055747,"rev_number":8674,"period_min":94.265709160806,"perigee_km":482.22746187144,"apogee_km":483.76984516635,"semimajor_km":6861.1356535189,"source":"CELESTRAK","updated_at":"2026-05-25T13:38:19.491496Z"}}}